FW1042 Weather Reports


Display with metric or nautical units.
time (UTC)temp
F
wind
direction
speed
MPH
gust
MPH
rain 1hr
in
rain 24hr
in
rain mn
in
humidity
%
barometer
mb
20260831110301 82 136 1.0 4.0 0.00 0.00 0.00 68 1015.0
20260831105802 82 163 2.0 4.0 0.00 0.00 0.00 68 1014.9
20260831105306 82 178 1.0 6.0 0.00 0.00 0.00 67 1014.8
20260831104802 82 178 2.0 6.0 0.00 0.00 0.00 67 1014.9
20260831104303 82 182 2.0 6.0 0.00 0.00 0.00 67 1014.9
20260831103802 82 140 1.0 5.0 0.00 0.00 0.00 67 1014.9
20260831103302 82 192 1.0 3.0 0.00 0.00 0.00 66 1014.9
20260831102801 82 194 2.0 5.0 0.00 0.00 0.00 66 1014.7
20260831102301 82 190 2.0 5.0 0.00 0.00 0.00 65 1014.9
20260831101802 82 170 2.0 5.0 0.00 0.00 0.00 65 1014.8
20260831101302 83 182 2.0 5.0 0.00 0.00 0.00 64 1014.8
20260831101054 83 168 1.0 4.0 0.00 0.00 0.00 64 1014.8
20260831100303 83 187 1.0 4.0 0.00 0.00 0.00 63 1014.8
20260831100107 83 164 1.0 4.0 0.00 0.00 0.00 63 1014.8
20260831095301 83 135 2.0 6.0 0.00 0.00 0.00 63 1014.9
20260831094801 83 194 2.0 7.0 0.00 0.00 0.00 63 1014.9
20260831094301 83 162 2.0 7.0 0.00 0.00 0.00 63 1014.9
20260831093801 83 156 2.0 4.0 0.00 0.00 0.00 62 1014.8
20260831093301 83 137 2.0 4.0 0.00 0.00 0.00 62 1014.9
20260831092801 84 184 2.0 7.0 0.00 0.00 0.00 62 1014.9
20260831092257 84 186 2.0 7.0 0.00 0.00 0.00 61 1014.8
20260831091755 84 163 1.0 4.0 0.00 0.00 0.00 61 1014.6
20260831091253 84 155 2.0 4.0 0.00 0.00 0.00 61 1014.7
20260831090753 84 191 2.0 5.0 0.00 0.00 0.00 60 1014.6
20260831090253 84 155 2.0 5.0 0.00 0.00 0.00 60 1014.7
20260831085753 85 194 2.0 6.0 0.00 0.00 0.00 59 1014.7
20260831085257 85 184 3.0 7.0 0.00 0.00 0.00 59 1014.7
20260831084753 85 192 2.0 7.0 0.00 0.00 0.00 58 1014.6
20260831084251 85 156 3.0 7.0 0.00 0.00 0.00 58 1014.5
20260831084045 85 146 3.0 7.0 0.00 0.00 0.00 57 1014.6
20260831083250 85 174 2.0 7.0 0.00 0.00 0.00 57 1014.5
20260831082751 85 174 3.0 7.0 0.00 0.00 0.00 56 1014.5
20260831082251 85 162 3.0 7.0 0.00 0.00 0.00 56 1014.5
20260831081754 85 196 3.0 8.0 0.00 0.00 0.00 55 1014.6
20260831081249 86 213 3.0 8.0 0.00 0.00 0.00 54 1014.6
20260831080749 86 161 3.0 8.0 0.00 0.00 0.00 54 1014.6
20260831080250 86 187 3.0 10.0 0.00 0.00 0.00 53 1014.6
20260831075838 86 195 3.0 9.0 0.00 0.00 0.00 53 1014.4
20260831075816 86 140 4.0 10.0 0.00 0.00 0.00 53 1014.5
20260831075047 86 192 3.0 9.0 0.00 0.00 0.00 53 1014.4
20260831074245 86 136 3.0 9.0 0.00 0.00 0.00 53 1014.3
20260831073745 85 161 3.0 9.0 0.00 0.00 0.00 53 1014.4
20260831073244 85 144 2.0 7.0 0.00 0.00 0.00 53 1014.3
20260831072743 85 210 2.0 7.0 0.00 0.00 0.00 54 1014.3
20260831072243 85 189 1.0 5.0 0.00 0.00 0.00 54 1014.2
20260831071744 85 149 0.0 2.0 0.00 0.00 0.00 54 1014.2
20260831071242 85 169 0.0 2.0 0.00 0.00 0.00 53 1014.2
20260831070743 85 188 0.0 2.0 0.00 0.00 0.00 53 1014.3
20260831070532 86 203 1.0 3.0 0.00 0.00 0.00 53 1014.2
20260831065743 86 193 1.0 3.0 0.00 0.00 0.00 53 1014.3
20260831065243 86 175 0.0 2.0 0.00 0.00 0.00 53 1014.3
20260831064743 86 167 0.0 2.0 0.00 0.00 0.00 52 1014.3
20260831064243 87 178 0.0 4.0 0.00 0.00 0.00 52 1014.3
20260831064034 87 157 0.0 2.0 0.00 0.00 0.00 51 1014.3
20260831063236 87 179 1.0 3.0 0.00 0.00 0.00 51 1014.3
20260831062737 87 164 1.0 3.0 0.00 0.00 0.00 51 1014.4
20260831062237 87 191 1.0 3.0 0.00 0.00 0.00 50 1014.3
20260831061737 87 178 1.0 6.0 0.00 0.00 0.00 50 1014.4
20260831061237 87 181 1.0 6.0 0.00 0.00 0.00 50 1014.3
20260831060737 87 186 1.0 4.0 0.00 0.00 0.00 50 1014.3
20260831060237 88 193 1.0 7.0 0.00 0.00 0.00 50 1014.3
20260831060033 88 167 2.0 7.0 0.00 0.00 0.00 50 1014.4
20260831055229 88 155 1.0 5.0 0.00 0.00 0.00 50 1014.3
20260831055021 88 159 2.0 5.0 0.00 0.00 0.00 50 1014.4
20260831054229 88 153 2.0 5.0 0.00 0.00 0.00 50 1014.5
20260831053728 87 212 2.0 7.0 0.00 0.00 0.00 51 1014.5
20260831053229 87 183 1.0 7.0 0.00 0.00 0.00 51 1014.4
20260831052727 87 200 1.0 5.0 0.00 0.00 0.00 51 1014.0
20260831052228 88 0.0 0.0 0.00 0.00 0.00 50
20260831051153 88 155 2.0 5.0 0.00 0.00 0.00 50 1014.0
20260831051123 88 146 2.0 5.0 0.00 0.00 0.00 50 1013.9
20260831051118 88 140 1.0 5.0 0.00 0.00 0.00 49 1013.8
20260831051012 88 161 2.0 5.0 0.00 0.00 0.00 50 1013.8
20260831050909 88 157 1.0 5.0 0.00 0.00 0.00 50 1013.8
20260831050431 88 180 2.0 5.0 0.00 0.00 0.00 50 1013.8
20260831044650 88 140 1.0 5.0 0.00 0.00 0.00 49 1013.8
20260831044152 88 184 1.0 5.0 0.00 0.00 0.00 49 1013.8
20260831043650 88 146 1.0 3.0 0.00 0.00 0.00 49 1013.9
20260831043501 88 150 1.0 4.0 0.00 0.00 0.00 49 1013.9
20260831042650 88 146 1.0 4.0 0.00 0.00 0.00 49 1013.9
20260831042439 88 185 1.0 4.0 0.00 0.00 0.00 49 1014.1
20260831041648 88 138 1.0 2.0 0.00 0.00 0.00 48 1013.9
20260831041436 88 175 1.0 2.0 0.00 0.00 0.00 48 1014.1
20260831040621 89 189 0.0 3.0 0.00 0.00 0.00 47 1014.0
20260831040411 89 153 1.0 3.0 0.00 0.00 0.00 47 1014.0
20260831035618 89 149 1.0 3.0 0.00 0.00 0.00 47 1013.9
20260831035118 89 142 1.0 3.0 0.00 0.00 0.00 47 1013.9
20260831034618 89 175 1.0 3.0 0.00 0.00 0.00 46 1013.9
20260831034115 89 192 0.0 3.0 0.00 0.00 0.00 46 1013.8
20260831033606 89 159 0.0 1.0 0.00 0.00 0.00 45 1013.8
20260831033105 90 171 0.0 3.0 0.00 0.00 0.00 45 1013.7
20260831032708 90 157 1.0 4.0 0.00 0.00 0.00 45 1013.7
20260831032640 90 188 1.0 4.0 0.00 0.00 0.00 45 1013.7
20260831031606 90 148 0.0 2.0 0.00 0.00 0.00 44 1013.8
20260831031102 91 155 0.0 1.0 0.00 0.00 0.00 44 1013.7
20260831030602 91 161 0.0 2.0 0.00 0.00 0.00 44 1013.7
20260831030400 91 161 0.0 2.0 0.00 0.00 0.00 44 1013.5
20260831025602 91 153 1.0 4.0 0.00 0.00 0.00 44 1013.7
20260831025102 91 165 1.0 4.0 0.00 0.00 0.00 44 1013.6
20260831024602 91 167 0.0 3.0 0.00 0.00 0.00 44 1013.5
20260831024355 92 156 0.0 2.0 0.00 0.00 0.00 43 1013.4
20260831023602 92 169 0.0 2.0 0.00 0.00 0.00 43 1013.5
20260831023103 92 141 1.0 4.0 0.00 0.00 0.00 43 1013.3
20260831022600 92 181 1.0 4.0 0.00 0.00 0.00 43 1013.3
20260831022100 92 146 1.0 4.0 0.00 0.00 0.00 43 1013.2
20260831021600 92 171 1.0 4.0 0.00 0.00 0.00 43 1013.0
20260831021101 92 182 2.0 4.0 0.00 0.00 0.00 43 1013.1
20260831020602 92 138 1.0 4.0 0.00 0.00 0.00 43 1012.9
20260831020347 93 150 2.0 5.0 0.00 0.00 0.00 43 1012.9
20260831015558 93 139 2.0 5.0 0.00 0.00 0.00 42 1012.7
20260831015058 93 114 1.0 5.0 0.00 0.00 0.00 42 1012.8
20260831014558 93 180 2.0 5.0 0.00 0.00 0.00 42 1012.7
20260831014059 93 138 2.0 7.0 0.00 0.00 0.00 42 1012.7
20260831013605 93 161 1.0 7.0 0.00 0.00 0.00 42 1012.7
20260831013100 94 166 1.0 5.0 0.00 0.00 0.00 42 1012.7
20260831012558 94 147 2.0 5.0 0.00 0.00 0.00 41 1012.6
20260831012058 94 146 2.0 5.0 0.00 0.00 0.00 40 1012.5
20260831011556 94 132 2.0 5.0 0.00 0.00 0.00 40 1012.6
20260831011349 94 119 1.0 4.0 0.00 0.00 0.00 39 1012.5
20260831010552 95 136 2.0 4.0 0.00 0.00 0.00 39 1012.5
20260831010347 95 167 2.0 6.0 0.00 0.00 0.00 38 1012.5
20260831005552 95 152 2.0 6.0 0.00 0.00 0.00 37 1012.5
20260831005050 96 173 2.0 6.0 0.00 0.00 0.00 37 1012.5
20260831004848 96 116 2.0 6.0 0.00 0.00 0.00 36 1012.4
20260831004049 96 108 2.0 7.0 0.00 0.00 0.00 36 1012.5
20260831003549 96 150 2.0 7.0 0.00 0.00 0.00 36 1012.4
20260831003050 97 94 3.0 7.0 0.00 0.00 0.00 35 1012.5
20260831002548 97 159 2.0 7.0 0.00 0.00 0.00 35 1012.5
20260831002049 97 188 2.0 9.0 0.00 0.00 0.00 35 1012.5
20260831001548 98 152 3.0 9.0 0.00 0.00 0.00 34 1012.6
20260831001048 98 198 2.0 6.0 0.00 0.00 0.00 33 1012.4
20260831000548 99 157 2.0 8.0 0.00 0.00 0.00 33 1012.4
20260831000044 100 148 2.0 8.0 0.00 0.00 0.00 33 1012.3
20260830235839 100 103 2.0 7.0 0.00 0.00 0.00 32 1012.3
20260830235044 100 112 3.0 8.0 0.00 0.00 0.00 32 1012.5
20260830234544 100 157 3.0 8.0 0.00 0.00 0.00 31 1012.5
20260830234041 101 165 2.0 7.0 0.00 0.00 0.00 30 1012.6
20260830233542 101 219 2.0 6.0 0.00 0.00 0.00 30 1012.6
20260830233042 100 201 3.0 6.0 0.00 0.00 0.00 31 1012.5
20260830232542 100 157 3.0 10.0 0.00 0.00 0.00 31 1012.6
20260830232044 100 215 4.0 10.0 0.00 0.00 0.00 31 1012.7
20260830231543 101 0.0 0.0 0.00 0.00 0.00 31
20260830215926 101 172 3.0 8.0 0.00 0.00 0.00 33 1012.8
20260830215422 101 113 3.0 2.0 0.00 0.00 0.00 33 1012.8
20260830214707 102 0.0 0.0 0.00 0.00 0.00 31
20260830213845 103 0.0 0.0 0.00 0.00 0.00 33
20260830205244 102 0.0 0.0 0.00 0.00 0.00 33
20260830195017 99 186 4.0 11.0 0.00 0.00 0.00 36 1014.2
20260830194500 100 104 4.0 9.0 0.00 0.00 0.00 35 1014.2
20260830194223 101 0.0 0.0 0.00 0.00 0.00 36
20260830181404 99 169 5.0 14.0 0.00 0.00 0.00 38 1015.6
20260830180856 98 194 5.0 13.0 0.00 0.00 0.00 39 1015.7
20260830180353 98 198 5.0 12.0 0.00 0.00 0.00 41 1015.8
20260830175852 98 229 5.0 15.0 0.00 0.00 0.00 41 1015.8
20260830175646 98 183 5.0 15.0 0.00 0.00 0.00 41 1015.8
20260830175148 98 130 5.0 14.0 0.00 0.00 0.00 42 1015.8
20260830174354 98 169 5.0 14.0 0.00 0.00 0.00 42 1015.9
20260830173853 98 180 5.0 11.0 0.00 0.00 0.00 42 1016.0
20260830173352 98 127 4.0 11.0 0.00 0.00 0.00 42 1016.0
20260830172854 98 176 4.0 10.0 0.00 0.00 0.00 42 1016.0
20260830172352 98 148 4.0 10.0 0.00 0.00 0.00 43 1016.3
20260830171853 98 259 3.0 8.0 0.00 0.00 0.00 45 1016.3
20260830171353 97 123 4.0 11.0 0.00 0.00 0.00 46 1016.2
20260830170854 96 171 5.0 11.0 0.00 0.00 0.00 44 1016.4
20260830170348 96 115 5.0 11.0 0.00 0.00 0.00 45 1016.5
20260830165847 96 169 4.0 12.0 0.00 0.00 0.00 44 1016.7
20260830165346 96 167 4.0 12.0 0.00 0.00 0.00 46 1016.8
20260830164847 96 133 3.0 10.0 0.00 0.00 0.00 46 1016.8
20260830164346 96 152 3.0 7.0 0.00 0.00 0.00 48 1016.8
20260830163846 96 168 4.0 9.0 0.00 0.00 0.00 48 1016.7
20260830163346 96 160 4.0 9.0 0.00 0.00 0.00 49 1016.8
20260830162847 96 185 4.0 9.0 0.00 0.00 0.00 49 1017.0
20260830162348 95 182 3.0 9.0 0.00 0.00 0.00 50 1017.0
20260830161846 95 206 4.0 9.0 0.00 0.00 0.00 50 1017.0
20260830161346 95 222 3.0 9.0 0.00 0.00 0.00 50 1017.0
20260830160846 95 199 2.0 9.0 0.00 0.00 0.00 51 1016.9
20260830160350 94 178 2.0 8.0 0.00 0.00 0.00 52 1016.8
20260830155842 94 128 3.0 8.0 0.00 0.00 0.00 52 1016.8
20260830155335 94 212 3.0 10.0 0.00 0.00 0.00 53 1016.7
20260830155121 93 191 3.0 14.0 0.00 0.00 0.00 54 1016.9
20260830154326 93 157 3.0 14.0 0.00 0.00 0.00 54 1016.8
20260830154120 92 140 4.0 10.0 0.00 0.00 0.00 55 1016.9
20260830153622 92 221 4.0 10.0 0.00 0.00 0.00 54 1016.9
20260830152828 92 105 4.0 9.0 0.00 0.00 0.00 54 1016.8
20260830152618 92 165 4.0 9.0 0.00 0.00 0.00 55 1016.9
20260830151924 91 204 4.0 9.0 0.00 0.00 0.00 55 1016.9
20260830151901 92 205 4.0 9.0 0.00 0.00 0.00 55 1016.8
20260830150826 91 218 4.0 9.0 0.00 0.00 0.00 55 1016.8
20260830150624 91 163 3.0 7.0 0.00 0.00 0.00 55 1016.8
20260830145826 90 219 3.0 7.0 0.00 0.00 0.00 55 1016.8
20260830145327 90 232 2.0 8.0 0.00 0.00 0.00 56 1016.8
20260830145121 90 196 3.0 8.0 0.00 0.00 0.00 57 1016.7
20260830144320 89 239 3.0 9.0 0.00 0.00 0.00 58 1016.7
20260830143815 89 212 4.0 9.0 0.00 0.00 0.00 58 1016.8
20260830143308 89 200 4.0 9.0 0.00 0.00 0.00 58 1016.8
20260830142808 88 173 3.0 7.0 0.00 0.00 0.00 59 1016.7
20260830142310 88 197 3.0 7.0 0.00 0.00 0.00 60 1016.8
20260830141808 88 164 3.0 7.0 0.00 0.00 0.00 61 1016.9
20260830141602 87 166 2.0 7.0 0.00 0.00 0.00 62 1016.9
20260830141103 87 167 3.0 7.0 0.00 0.00 0.00 63 1016.9
20260830140309 86 197 3.0 10.0 0.00 0.00 0.00 63 1016.8
20260830140119 86 180 3.0 10.0 0.00 0.00 0.00 64 1016.8
20260830135309 85 160 3.0 8.0 0.00 0.00 0.00 65 1016.8
20260830135054 85 148 3.0 6.0 0.00 0.00 0.00 66 1016.8
20260830134557 85 163 3.0 7.0 0.00 0.00 0.00 67 1016.9
20260830133808 84 206 3.0 7.0 0.00 0.00 0.00 68 1016.9
20260830133308 83 158 3.0 8.0 0.00 0.00 0.00 69 1016.8
20260830133104 83 129 2.0 8.0 0.00 0.00 0.00 70 1016.8
20260830132606 82 172 2.0 6.0 0.00 0.00 0.00 71 1016.7
20260830131810 82 163 1.0 6.0 0.00 0.00 0.00 71 1016.7
20260830131605 81 186 1.0 6.0 0.00 0.00 0.00 71 1016.6
20260830130808 81 157 1.0 6.0 0.00 0.00 0.00 71 1016.7
20260830130306 81 142 1.0 6.0 0.00 0.00 0.00 71 1016.6
20260830125804 81 142 2.0 6.0 0.00 0.00 0.00 71 1016.5
20260830125306 81 121 1.0 4.0 0.00 0.00 0.00 71 1016.4
20260830124804 80 159 1.0 4.0 0.00 0.00 0.00 71 1016.4
20260830124602 80 183 1.0 3.0 0.00 0.00 0.00 71 1016.3
20260830123809 80 153 1.0 4.0 0.00 0.00 0.00 70 1016.0
20260830123304 80 155 1.0 5.0 0.00 0.00 0.00 70 1016.2
20260830122803 80 117 1.0 5.0 0.00 0.00 0.00 70 1015.9
20260830122305 80 152 2.0 5.0 0.00 0.00 0.00 70 1015.9
20260830121802 80 128 2.0 6.0 0.00 0.00 0.00 69 1015.9
20260830121302 80 150 1.0 6.0 0.00 0.00 0.00 69 1015.9
20260830121058 80 174 1.0 5.0 0.00 0.00 0.00 68 1015.7
20260830120304 80 133 2.0 4.0 0.00 0.00 0.00 68 1015.7
20260830115803 80 147 2.0 4.0 0.00 0.00 0.00 67 1015.6
20260830115306 81 127 1.0 4.0 0.00 0.00 0.00 67 1015.5
20260830114804 81 169 1.0 4.0 0.00 0.00 0.00 67 1015.4
20260830114556 81 131 1.0 4.0 0.00 0.00 0.00 66 1015.4
20260830113802 81 157 1.0 4.0 0.00 0.00 0.00 66 1015.3
20260830113302 81 157 2.0 6.0 0.00 0.00 0.00 65 1015.3
20260830112806 81 177 2.0 6.0 0.00 0.00 0.00 65 1015.2
20260830112305 81 143 2.0 5.0 0.00 0.00 0.00 65 1015.2
20260830111801 81 154 2.0 5.0 0.00 0.00 0.00 65 1015.2
20260830111555 81 166 2.0 4.0 0.00 0.00 0.00 65 1015.2
20260830111055 82 210 2.0 5.0 0.00 0.00 0.00 64 1015.1